Location: Prairie Dale
(45.6972°N, 104.5033°W)
Time: 16:55:42
(UTC+00:00)

ESTCUBE 1 - Pass Details

Date: 30 June 2022
Orbit: 646 x 657 km, 97.9° (Epoch: 07 August)

Event Time Altitude Azimuth Distance (km) Brightness Sun altitude
Exits shadow 06:27:24 11° 245° (WSW) 2,003 ? -20.7°
Maximum altitude 06:29:20 13° 271° (W) 1,833 ? -20.7°
Drops below altitude 10° 06:31:30 10° 300° (WNW) 2,054 ? -20.8°
Sets 06:34:53 0° 328° (NNW) 2,973 ? -20.9°
